Regional Weather Roundup
Issued by NWS

Home | Current Version | Previous Version | Graphics & Text | Print | Product List | Glossary On
Versions: 1 2 3 4 5 6 7 8 9 10 11 12 13 14 15 16 17 18 19 20 21 22 23 24 25 26 27 28 29 30 31 32 33 34 35 36 37 38 39 40 41 42 43 44 45 46 47 48 49 50
000
ASUS43 KOAX 272210
RWRNE

WEATHER ROUNDUP FOR NEBRASKA
NATIONAL WEATHER SERVICE OMAHA NE
500 PM CDT WED AUG 27 2014

NOTES: SATELLITE DATA IS BEING USED TO AUGMENT CLOUD COVER ABOVE
       12000 FEET.
       "FAIR" INDICATES FEW OR NO CLOUDS BELOW 12,000 FEET WITH NO
       SIGNIFICANT WEATHER AND/OR OBSTRUCTIONS TO VISIBILITY.

  * THESE STATIONS DO NOT REPORT WEATHER SUCH AS RAIN...SNOW OR FOG.

NEZ001>004-019>022-054>056-272300-
NEBRASKA PANHANDLE

CITY           SKY/WX    TMP DP  RH WIND       PRES   REMARKS
SCOTTSBLUFF    LGT RAIN  65  64  97 W6        30.08F
ALLIANCE       LGT RAIN  63  62  97 NW13      30.07F
CHADRON        TSTM      65  64  97 CALM      30.08S VSB 3/4
KIMBALL        MOSUNNY   69  57  65 NW8       30.10F
SIDNEY         PTSUNNY   74  57  55 NW16G26   30.09F
$$

NEZ057>060-069>072-079>082-272300-
SOUTHWEST NEBRASKA

CITY           SKY/WX    TMP DP  RH WIND       PRES   REMARKS
NORTH PLATTE   CLOUDY    72  66  81 SE17      30.04F
IMPERIAL       MOSUNNY   80  64  58 SE16      30.01F
LEXINGTON      CLOUDY    73  69  89 E13       30.06F
MCCOOK         CLOUDY    74  68  81 SE17G25   30.03F
OGALLALA       PTSUNNY   68  63  85 SE12      30.02F
$$

NEZ005>010-023>029-035>040-094-272300-
NORTH CENTRAL NEBRASKA

CITY           SKY/WX    TMP DP  RH WIND       PRES   REMARKS
VALENTINE      LGT RAIN  71  68  90 S15       30.05F
AINSWORTH      LGT RAIN  73  65  78 SE12      30.07F
BROKEN BOW     PTSUNNY   76  67  73 SE14      30.07F
O`NEILL        CLOUDY    72  68  88 E5        30.07F
ORD            CLOUDY    76  68  76 SE8       30.05F
THEDFORD       CLOUDY    71  66  85 SE13      30.08F
$$

NEZ041-046>049-061>064-073>077-083>087-272300-
SOUTH CENTRAL NEBRASKA

CITY           SKY/WX    TMP DP  RH WIND       PRES   REMARKS
GRAND ISLAND   CLOUDY    77  69  76 SE12      30.07F
AURORA         LGT RAIN  75  72  91 SE8       30.06F
HASTINGS       LGT RAIN  75  68  78 SE8       30.06F
HEBRON         CLOUDY    77  69  77 SE6       30.05S
HOLDREGE       CLOUDY    73  69  89 E12       30.06F
KEARNEY *      CLOUDY    73  70  88 E10       30.08F
YORK           CLOUDY    73 N/A N/A SE9       30.07F
$$

NEZ011>018-030>034-042>045-272300-
NORTHEAST NEBRASKA

CITY           SKY/WX    TMP DP  RH WIND       PRES   REMARKS
NORFOLK        CLOUDY    72  68  87 SE6       30.07F
ALBION         CLOUDY    73  67  81 SE8       30.08F
BLAIR          CLOUDY    75  69  83 N3        30.07S
FREMONT        CLOUDY    76  68  74 SE5       30.06F
TEKAMAH        CLOUDY    73  69  87 N5        30.07F
WAYNE          CLOUDY    70  69  95 E3        30.09F
$$

NEZ050>053-065>068-078-088>093-272300-
SOUTHEAST NEBRASKA

CITY           SKY/WX    TMP DP  RH WIND       PRES   REMARKS
LINCOLN        LGT RAIN  76  69  79 SE8       30.06F
OMAHA EPPLEY   CLOUDY    74  69  85 NE9       30.06S
BEATRICE       CLOUDY    76  73  90 E8        30.06F
FALLS CITY     PTSUNNY   80  71  74 E5        30.06F
NEBRASKA CITY  CLOUDY    74  73  94 S6        30.07F
PLATTSMOUTH    CLOUDY    74  68  83 S7        30.06F
$$

NEZ044-045-051>053-067-272300-
OMAHA AREA

CITY           SKY/WX    TMP DP  RH WIND       PRES   REMARKS
OMAHA EPPLEY   CLOUDY    74  69  85 NE9       30.06S
BLAIR          CLOUDY    75  69  83 N3        30.07S
FREMONT        CLOUDY    76  68  74 SE5       30.06F
MILLARD        CLOUDY    76  70  80 S7        30.05F
PLATTSMOUTH    CLOUDY    74  68  83 S7        30.06F
WAHOO          MOCLDY    76  67  75 S12       30.06F
$$



USA.gov is the U.S. government's official web portal to all federal, state and local government web resources and services.